DW1824 Weather Reports


time (UTC)temp
F
wind
direction
speed
knots
gust
knots
rain 1hr
in
rain 24hr
in
rain mn
in
humidity
%
barometer
mb
20260906183330 86 118 1.7 5.2 0.00 0.00 0.00 75 1013.9
20260906182340 87 131 1.7 3.5 0.00 0.00 0.00 75 1014.2
20260906181325 87 106 1.7 4.3 0.00 0.00 0.00 74 1014.4
20260906180327 88 5 0.0 0.9 0.00 0.00 0.00 73 1014.2
20260906175332 88 10 0.9 2.6 0.00 0.00 0.00 72 1014.0
20260906174338 87 142 0.9 1.7 0.00 0.00 0.00 73 1014.1
20260906173341 86 360 0.0 0.9 0.00 0.00 0.00 74 1014.1
20260906172330 86 28 0.0 1.7 0.00 0.00 0.00 74 1014.4
20260906171337 85 193 0.0 0.9 0.00 0.00 0.00 76 1014.6
20260906170338 84 193 0.0 0.0 0.00 0.00 0.00 78 1014.8
20260906165403 83 193 0.0 0.9 0.00 0.00 0.00 79 1014.7
20260906164348 84 193 0.0 0.9 0.00 0.00 0.00 77 1014.8
20260906163328 84 207 0.9 2.6 0.00 0.00 0.00 74 1014.8
20260906162333 85 164 0.9 2.6 0.00 0.00 0.00 75 1014.8
20260906161338 85 275 0.9 1.7 0.00 0.00 0.00 71 1014.7
20260906160359 85 291 0.9 2.6 0.00 0.00 0.00 71 1014.7
20260906155329 86 248 1.7 2.6 0.00 0.00 0.00 70 1014.6
20260906154354 87 275 0.9 7.0 0.00 0.00 0.00 74 1014.6
20260906153333 87 301 0.0 1.7 0.00 0.00 0.00 75 1014.6
20260906152338 87 108 0.0 0.9 0.00 0.00 0.00 76 1014.5
20260906151324 86 349 0.0 1.7 0.00 0.00 0.00 77 1014.5
20260906150328 86 81 0.9 1.7 0.00 0.00 0.00 77 1014.5
20260906145333 86 232 0.0 0.9 0.00 0.00 0.00 77 1014.5
20260906144340 85 232 0.0 1.7 0.00 0.00 0.00 79 1014.4
20260906143325 85 266 0.0 1.7 0.00 0.00 0.00 82 1014.5
20260906142331 84 166 0.0 0.9 0.00 0.00 0.00 83 1014.5
20260906141338 84 166 0.0 2.6 0.00 0.00 0.00 84 1014.4
20260906140401 84 120 0.9 3.5 0.00 0.00 0.00 84 1014.4
20260906135326 83 181 0.0 1.7 0.00 0.00 0.00 86 1014.4
20260906134331 83 131 0.0 0.0 0.00 0.00 0.00 88 1014.3
20260906133354 82 131 0.0 0.9 0.00 0.00 0.00 89 1014.4
20260906132339 82 125 0.0 2.6 0.00 0.00 0.00 90 1014.3
20260906131329 81 133 0.0 0.9 0.00 0.00 0.00 90 1014.2
20260906130333 80 130 0.9 1.7 0.00 0.00 0.00 93 1014.0
20260906125338 79 187 0.0 0.0 0.00 0.00 0.00 94 1014.0
20260906124324 78 186 0.0 0.0 0.00 0.00 0.00 94 1013.9
20260906123327 78 186 0.0 0.0 0.00 0.00 0.00 92 1013.7
20260906122331 78 186 0.0 0.0 0.00 0.00 0.00 93 1013.5
20260906121337 78 186 0.0 0.0 0.00 0.00 0.00 93 1013.2
20260906120324 78 187 0.0 0.0 0.00 0.00 0.00 93 1013.1
20260906115329 78 186 0.0 0.0 0.00 0.00 0.00 93 1012.9
20260906114336 78 186 0.0 0.0 0.00 0.00 0.00 93 1012.7
20260906113338 78 186 0.0 0.0 0.00 0.00 0.00 93 1012.7
20260906112324 78 186 0.0 0.0 0.00 0.00 0.00 93 1012.6
20260906111330 78 186 0.0 0.0 0.00 0.00 0.00 93 1012.6
20260906110353 79 186 0.0 0.0 0.00 0.00 0.00 93 1012.7
20260906105336 79 186 0.0 0.0 0.00 0.00 0.00 92 1012.6
20260906104326 79 186 0.0 0.0 0.00 0.00 0.00 92 1012.6
20260906103326 79 186 0.0 0.0 0.00 0.00 0.00 92 1012.6
20260906102332 79 186 0.0 0.0 0.00 0.00 0.00 92 1012.6
20260906101356 79 186 0.0 0.0 0.00 0.00 0.00 92 1012.5
20260906100340 79 186 0.0 0.9 0.00 0.00 0.00 92 1012.3
20260906095325 79 186 0.0 0.0 0.00 0.00 0.00 92 1012.3
20260906094329 79 186 0.0 0.0 0.00 0.00 0.00 91 1012.2
20260906093330 79 186 0.0 0.0 0.00 0.00 0.00 91 1012.2
20260906092336 79 186 0.0 0.0 0.00 0.00 0.00 91 1012.0
20260906091341 80 186 0.0 0.0 0.00 0.00 0.00 90 1012.1
20260906090324 80 186 0.0 0.0 0.00 0.00 0.00 90 1012.1
20260906085330 80 186 0.0 0.9 0.00 0.00 0.00 90 1012.1
20260906084334 80 186 0.0 0.9 0.00 0.00 0.00 90 1012.1
20260906083335 80 186 0.0 0.0 0.00 0.00 0.00 91 1012.0
20260906082341 80 186 0.0 0.0 0.00 0.00 0.00 90 1011.9
20260906081331 80 186 0.0 0.0 0.00 0.00 0.00 90 1012.1
20260906080354 80 186 0.0 0.9 0.00 0.00 0.00 89 1012.2
20260906075339 80 186 0.0 0.9 0.00 0.00 0.00 89 1012.3
20260906074404 80 186 0.0 0.0 0.00 0.00 0.00 89 1012.1
20260906073325 80 186 0.0 0.9 0.00 0.00 0.00 89 1012.2
20260906072330 80 186 0.0 0.9 0.00 0.00 0.00 89 1012.3
20260906071336 81 186 0.0 0.9 0.00 0.00 0.00 89 1012.5
20260906070340 80 186 0.0 0.9 0.00 0.00 0.00 89 1012.7
20260906065329 80 186 0.0 0.9 0.00 0.00 0.00 89 1012.8
20260906064336 81 186 0.0 0.9 0.00 0.00 0.00 88 1012.9
20260906063339 81 201 0.0 0.9 0.00 0.00 0.00 88 1012.8
20260906062345 81 179 0.0 0.9 0.00 0.00 0.00 88 1012.8
20260906061329 81 179 0.0 0.0 0.00 0.00 0.00 88 1012.9
20260906060351 81 179 0.0 0.0 0.00 0.00 0.00 88 1012.9
20260906055334 81 180 0.0 0.9 0.00 0.00 0.00 87 1012.9
20260906054339 81 180 0.0 0.9 0.00 0.00 0.00 87 1012.7
20260906053326 81 160 0.0 0.0 0.00 0.00 0.00 87 1012.6
20260906052332 81 160 0.0 1.7 0.00 0.00 0.00 87 1012.7
20260906051339 81 183 0.0 1.7 0.00 0.00 0.00 87 1012.6
20260906050342 81 170 0.0 0.9 0.00 0.00 0.00 87 1012.8
20260906045327 81 147 0.0 0.9 0.00 0.00 0.00 86 1012.9
20260906044332 81 139 0.0 0.0 0.00 0.00 0.00 86 1013.1
20260906043335 80 169 0.0 1.7 0.00 0.00 0.00 86 1013.1
20260906042327 80 148 0.9 0.9 0.00 0.00 0.00 85 1013.0
20260906041332 80 129 0.0 0.9 0.00 0.00 0.00 84 1013.1
20260906040335 80 128 0.0 1.7 0.00 0.00 0.00 83 1013.0
20260906035342 80 129 0.9 1.7 0.00 0.00 0.00 82 1013.1
20260906034327 80 129 0.9 1.7 0.00 0.00 0.00 82 1013.0
20260906033352 80 360 0.0 0.9 0.00 0.00 0.00 81 1013.0
20260906032336 81 360 0.0 0.0 0.00 0.00 0.00 81 1012.9
20260906031324 81 360 0.0 0.0 0.00 0.00 0.00 80 1012.9
20260906030327 81 360 0.0 0.9 0.00 0.00 0.00 79 1012.8
20260906025334 81 360 0.0 0.9 0.00 0.00 0.00 79 1012.7
20260906024340 82 360 0.0 0.0 0.00 0.00 0.00 78 1012.8
20260906023343 82 360 0.0 0.0 0.00 0.00 0.00 77 1012.5
20260906022348 82 360 0.0 0.0 0.00 0.00 0.00 76 1012.3
20260906021332 82 360 0.0 0.0 0.00 0.00 0.00 75 1012.1
20260906020328 83 360 0.0 0.9 0.00 0.00 0.00 75 1011.9
20260906015338 83 360 0.0 0.0 0.00 0.00 0.00 74 1011.8
20260906014324 83 360 0.0 0.9 0.00 0.00 0.00 74 1011.7
20260906013328 83 360 0.0 0.9 0.00 0.00 0.00 73 1011.6
20260906012333 84 5 0.0 0.9 0.00 0.00 0.00 73 1011.6
20260906011340 84 360 0.0 1.7 0.00 0.00 0.00 72 1011.6
20260906010324 84 39 0.0 0.9 0.00 0.00 0.00 72 1011.4
20260906005329 85 29 0.0 1.7 0.00 0.00 0.00 72 1011.5
20260906004339 85 114 0.0 0.9 0.00 0.00 0.00 71 1011.6
20260906003342 85 30 0.0 1.7 0.00 0.00 0.00 70 1011.7
20260906002326 85 350 0.9 3.5 0.00 0.00 0.00 69 1011.8
20260906001331 86 10 0.9 2.6 0.00 0.00 0.00 69 1011.8
20260906000334 86 51 0.0 1.7 0.00 0.00 0.00 68 1011.9
20260905235340 87 179 0.9 4.3 0.00 0.00 0.00 67 1011.8
20260905234404 88 33 1.7 3.5 0.00 0.00 0.00 66 1011.9
20260905233329 88 106 0.0 3.5 0.00 0.00 0.00 68 1011.7
20260905232336 89 127 0.0 6.1 0.00 0.00 0.00 67 1011.7
20260905231341 89 118 2.6 7.0 0.00 0.00 0.00 65 1011.7
20260905230326 89 124 1.7 7.0 0.00 0.00 0.00 64 1011.4
20260905225331 89 128 4.3 7.0 0.00 0.00 0.00 63 1011.4
20260905224338 90 128 5.2 8.7 0.00 0.00 0.00 62 1011.3
20260905223340 90 126 3.5 11.3 0.00 0.00 0.00 62 1011.3
20260905222329 90 138 8.7 11.3 0.00 0.00 0.00 61 1011.3
20260905221333 91 139 7.8 12.2 0.00 0.00 0.00 61 1011.2
20260905220335 93 126 1.7 3.5 0.00 0.00 0.00 55 1011.1
20260905215340 93 162 0.9 2.6 0.00 0.00 0.00 52 1011.0
20260905214326 92 124 0.9 1.7 0.00 0.00 0.00 55 1011.1
20260905213331 92 124 0.0 2.6 0.00 0.00 0.00 55 1011.3
20260905212356 92 122 1.7 3.5 0.00 0.00 0.00 55 1011.4
20260905211324 91 158 0.9 1.7 0.00 0.00 0.00 59 1011.6
20260905210326 87 211 1.7 2.6 0.00 0.00 0.00 67 1011.4
20260905205352 87 172 1.7 3.5 0.00 0.00 0.00 67 1011.4
20260905204336 86 171 2.6 7.0 0.00 0.00 0.00 69 1011.5
20260905203359 91 195 1.7 3.5 0.00 0.00 0.00 59 1011.6
20260905202343 92 135 1.7 5.2 0.00 0.00 0.00 56 1011.7
20260905201349 93 139 1.7 5.2 0.00 0.00 0.00 54 1011.8
20260905200350 95 130 2.6 3.5 0.00 0.00 0.00 51 1011.9
20260905195334 95 122 0.9 1.7 0.00 0.00 0.00 52 1012.1
20260905194324 95 116 0.9 3.5 0.00 0.00 0.00 53 1012.2
20260905193328 93 300 0.9 2.6 0.00 0.00 0.00 57 1012.4
20260905192335 93 352 0.9 3.5 0.00 0.00 0.00 56 1012.5
20260905191340 93 333 0.9 2.6 0.00 0.00 0.00 55 1012.6
20260905190325 94 64 0.0 3.5 0.00 0.00 0.00 56 1012.7
20260905185329 92 195 0.9 4.3 0.00 0.00 0.00 58 1012.8
20260905184335 92 230 0.9 1.7 0.00 0.00 0.00 58 1013.0